N550CR KFXE-KX01

Flight info

Callsign N550CR
Flight time N/A
Altitude 8000
Route EVERGALDES VPCTE
Aircraft SR22/L-SDGRY/S

Departure

Time 2026-04-24 19:58
Airport Fort Lauderdale Executive Airport (KFXE)

Arrival

Time N/A
Airport KX01
Time Latitude Longitude Altitude Speed Heading
2026-04-24 19:43 26.19953 -80.18140 10 ft 0 kts 173°
2026-04-24 19:43 26.19929 -80.18126 10 ft 5 kts 110°
2026-04-24 19:44 26.19937 -80.18065 10 ft 12 kts 80°
2026-04-24 19:44 26.19949 -80.17954 10 ft 14 kts 84°
2026-04-24 19:44 26.19956 -80.17878 10 ft 6 kts 85°
2026-04-24 19:44 26.19956 -80.17864 10 ft 0 kts 84°
2026-04-24 19:54 26.19960 -80.17839 10 ft 8 kts 84°
2026-04-24 19:55 26.19965 -80.17782 10 ft 13 kts 82°
2026-04-24 19:55 26.19984 -80.17593 10 ft 22 kts 84°
2026-04-24 19:55 26.20003 -80.17410 10 ft 21 kts 82°
2026-04-24 19:55 26.19964 -80.17309 10 ft 8 kts 216°
2026-04-24 19:56 26.19941 -80.17330 10 ft 0 kts 218°
2026-04-24 19:56 26.19933 -80.17336 10 ft 4 kts 219°
2026-04-24 19:56 26.19898 -80.17364 10 ft 6 kts 216°
2026-04-24 19:56 26.19879 -80.17368 10 ft 2 kts 116°
2026-04-24 19:57 26.19866 -80.17347 10 ft 0 kts 139°
2026-04-24 19:57 26.19865 -80.17346 10 ft 0 kts 131°
2026-04-24 19:58 26.19835 -80.17306 10 ft 23 kts 128°
2026-04-24 19:58 26.19593 -80.16972 57 ft 74 kts 127°
2026-04-24 19:58 26.19280 -80.16553 372 ft 72 kts 129°
2026-04-24 19:58 26.18955 -80.16151 661 ft 72 kts 127°
2026-04-24 19:59 26.18631 -80.15706 939 ft 74 kts 131°
2026-04-24 19:59 26.18107 -80.15565 1125 ft 91 kts 185°
2026-04-24 19:59 26.17554 -80.16002 1298 ft 108 kts 219°
2026-04-24 19:59 26.17152 -80.16760 1443 ft 118 kts 241°
2026-04-24 20:00 26.16841 -80.17552 1649 ft 115 kts 250°
2026-04-24 20:00 26.16836 -80.18465 1688 ft 119 kts 275°
2026-04-24 20:00 26.17051 -80.19347 1753 ft 117 kts 292°
2026-04-24 20:00 26.17397 -80.20161 1819 ft 114 kts 300°
2026-04-24 20:01 26.17835 -80.20908 1852 ft 116 kts 307°
2026-04-24 20:01 26.18345 -80.21606 1879 ft 118 kts 312°
2026-04-24 20:01 26.18905 -80.22271 1934 ft 116 kts 318°
2026-04-24 20:01 26.19350 -80.23029 1974 ft 116 kts 290°
2026-04-24 20:02 26.19480 -80.23605 1996 ft 116 kts 278°
2026-04-24 20:02 26.19579 -80.24818 2038 ft 115 kts 274°
2026-04-24 20:02 26.19618 -80.25711 2061 ft 115 kts 266°
2026-04-24 20:02 26.19554 -80.26646 1949 ft 125 kts 261°
2026-04-24 20:03 26.19421 -80.27606 1935 ft 123 kts 256°
2026-04-24 20:03 26.19251 -80.28531 1950 ft 120 kts 257°
2026-04-24 20:03 26.19085 -80.29457 1884 ft 125 kts 255°
2026-04-24 20:03 26.18894 -80.30408 1818 ft 127 kts 255°
2026-04-24 20:04 26.18681 -80.31383 1699 ft 129 kts 254°
2026-04-24 20:04 26.18424 -80.32352 1496 ft 133 kts 252°
2026-04-24 20:04 26.18144 -80.33330 1339 ft 132 kts 250°
2026-04-24 20:04 26.17870 -80.34290 1221 ft 128 kts 250°
2026-04-24 20:05 26.17623 -80.35222 1164 ft 123 kts 252°
2026-04-24 20:05 26.17427 -80.36139 1119 ft 119 kts 255°
2026-04-24 20:05 26.17252 -80.37019 1068 ft 118 kts 254°
2026-04-24 20:05 26.17128 -80.37902 1063 ft 113 kts 265°
2026-04-24 20:06 26.17016 -80.38744 1054 ft 108 kts 256°
2026-04-24 20:06 26.16904 -80.39567 1037 ft 107 kts 259°
2026-04-24 20:06 26.16809 -80.40425 1093 ft 116 kts 258°
2026-04-24 20:06 26.16703 -80.41329 1217 ft 119 kts 258°
2026-04-24 20:07 26.16615 -80.41936 1313 ft 119 kts 257°
2026-04-24 20:07 26.16458 -80.43162 1479 ft 122 kts 261°
2026-04-24 20:07 26.16393 -80.44106 1569 ft 119 kts 265°
2026-04-24 20:07 26.16350 -80.45023 1609 ft 119 kts 264°
2026-04-24 20:08 26.16311 -80.45964 1648 ft 118 kts 267°
2026-04-24 20:08 26.16305 -80.46829 1915 ft 106 kts 266°
2026-04-24 20:08 26.16261 -80.47633 2046 ft 109 kts 259°
2026-04-24 20:08 26.16039 -80.48456 2232 ft 113 kts 247°
2026-04-24 20:09 26.15792 -80.49275 2481 ft 112 kts 249°
2026-04-24 20:09 26.15569 -80.50136 2641 ft 120 kts 253°
2026-04-24 20:09 26.15365 -80.51067 2773 ft 126 kts 253°
2026-04-24 20:09 26.15158 -80.51998 2948 ft 126 kts 257°
2026-04-24 20:10 26.15007 -80.52989 2904 ft 127 kts 262°
2026-04-24 20:10 26.14985 -80.53895 2629 ft 113 kts 269°
2026-04-24 20:10 26.15006 -80.54768 2425 ft 113 kts 272°
2026-04-24 20:10 26.15067 -80.55631 2310 ft 107 kts 275°
2026-04-24 20:11 26.15105 -80.56491 2214 ft 113 kts 268°
2026-04-24 20:11 26.15101 -80.57368 2163 ft 113 kts 268°
2026-04-24 20:11 26.15106 -80.58253 2146 ft 116 kts 270°
2026-04-24 20:11 26.15135 -80.59152 2153 ft 117 kts 272°
2026-04-24 20:12 26.15079 -80.60044 2187 ft 114 kts 258°
2026-04-24 20:12 26.14941 -80.60902 2212 ft 114 kts 260°
2026-04-24 20:12 26.14841 -80.61784 2239 ft 114 kts 264°
2026-04-24 20:12 26.14816 -80.62666 2252 ft 114 kts 267°
2026-04-24 20:13 26.14798 -80.63563 2248 ft 116 kts 268°
2026-04-24 20:13 26.14795 -80.64465 2240 ft 118 kts 269°
2026-04-24 20:13 26.14805 -80.65383 2232 ft 119 kts 268°
2026-04-24 20:13 26.14815 -80.66307 2233 ft 119 kts 271°
2026-04-24 20:14 26.14865 -80.67235 2111 ft 119 kts 274°
2026-04-24 20:14 26.14955 -80.68135 1891 ft 118 kts 277°
2026-04-24 20:14 26.15078 -80.69032 1690 ft 116 kts 274°
2026-04-24 20:14 26.15113 -80.69936 1517 ft 119 kts 271°
2026-04-24 20:15 26.15069 -80.70875 1373 ft 124 kts 257°
2026-04-24 20:15 26.15051 -80.71832 1272 ft 126 kts 276°
2026-04-24 20:15 26.15183 -80.72788 1182 ft 125 kts 278°
2026-04-24 20:15 26.15315 -80.73732 1147 ft 120 kts 279°
2026-04-24 20:16 26.15470 -80.74634 1139 ft 115 kts 281°
2026-04-24 20:16 26.15639 -80.75504 1105 ft 115 kts 283°
2026-04-24 20:16 26.15813 -80.76360 1097 ft 112 kts 279°
2026-04-24 20:16 26.15929 -80.77223 1077 ft 111 kts 277°
2026-04-24 20:17 26.16049 -80.78067 1067 ft 110 kts 278°
2026-04-24 20:17 26.16207 -80.79749 1022 ft 111 kts 278°
2026-04-24 20:17 26.16332 -80.80596 1026 ft 109 kts 278°
2026-04-24 20:18 26.16411 -80.81151 1020 ft 109 kts 279°
2026-04-24 20:18 26.16603 -80.82247 1017 ft 108 kts 282°
2026-04-24 20:18 26.16753 -80.83066 1005 ft 108 kts 281°
2026-04-24 20:18 26.16892 -80.83890 1005 ft 106 kts 282°
2026-04-24 20:19 26.17071 -80.84685 1003 ft 105 kts 284°
2026-04-24 20:19 26.17218 -80.85487 991 ft 106 kts 277°
2026-04-24 20:19 26.17283 -80.86297 994 ft 104 kts 273°
2026-04-24 20:19 26.17295 -80.87098 1007 ft 103 kts 268°
2026-04-24 20:20 26.17297 -80.87903 1005 ft 107 kts 267°
2026-04-24 20:20 26.17290 -80.88757 1042 ft 113 kts 268°
2026-04-24 20:20 26.17253 -80.89655 1080 ft 118 kts 265°
2026-04-24 20:20 26.17211 -80.90569 1140 ft 118 kts 266°
2026-04-24 20:21 26.17225 -80.91492 1165 ft 122 kts 273°
2026-04-24 20:21 26.17234 -80.92436 1203 ft 120 kts 268°
2026-04-24 20:21 26.17202 -80.93321 1169 ft 107 kts 268°
2026-04-24 20:21 26.17191 -80.94112 1120 ft 98 kts 269°
2026-04-24 20:22 26.17190 -80.94863 1085 ft 92 kts 270°
2026-04-24 20:22 26.17200 -80.95581 1079 ft 93 kts 270°
2026-04-24 20:22 26.17199 -80.96296 1090 ft 91 kts 267°
2026-04-24 20:22 26.17169 -80.97015 1082 ft 93 kts 264°
2026-04-24 20:23 26.17102 -80.97735 1089 ft 93 kts 259°
2026-04-24 20:23 26.17012 -80.98442 1101 ft 93 kts 261°
2026-04-24 20:23 26.16941 -80.99171 1095 ft 94 kts 262°
2026-04-24 20:23 26.16880 -80.99897 1090 ft 95 kts 264°
2026-04-24 20:24 26.16845 -81.00641 1070 ft 97 kts 267°
2026-04-24 20:24 26.16829 -81.01383 1070 ft 95 kts 268°
2026-04-24 20:24 26.16844 -81.02134 1059 ft 95 kts 271°
2026-04-24 20:24 26.16876 -81.02886 1040 ft 97 kts 270°
2026-04-24 20:25 26.16884 -81.03636 1056 ft 94 kts 266°
2026-04-24 20:25 26.16890 -81.04374 1037 ft 96 kts 271°
2026-04-24 20:25 26.16914 -81.05132 1041 ft 95 kts 269°
2026-04-24 20:25 26.16893 -81.05870 1037 ft 95 kts 266°
2026-04-24 20:26 26.16866 -81.06599 1027 ft 96 kts 269°
2026-04-24 20:26 26.16859 -81.07336 1042 ft 93 kts 265°
2026-04-24 20:26 26.16837 -81.08070 1042 ft 96 kts 268°
2026-04-24 20:26 26.16839 -81.08826 1047 ft 98 kts 273°
2026-04-24 20:27 26.16870 -81.09589 1079 ft 97 kts 269°
2026-04-24 20:27 26.16880 -81.10339 1104 ft 98 kts 270°
2026-04-24 20:27 26.16898 -81.11105 1119 ft 99 kts 269°
2026-04-24 20:27 26.16912 -81.11865 1151 ft 98 kts 269°
2026-04-24 20:28 26.16919 -81.12628 1176 ft 98 kts 268°
2026-04-24 20:28 26.16914 -81.13387 1201 ft 98 kts 266°
2026-04-24 20:28 26.16920 -81.14150 1215 ft 99 kts 269°
2026-04-24 20:28 26.16921 -81.14919 1251 ft 98 kts 268°
2026-04-24 20:29 26.16909 -81.15425 1282 ft 96 kts 265°
2026-04-24 20:29 26.16872 -81.16423 1320 ft 97 kts 265°
2026-04-24 20:29 26.16830 -81.17176 1330 ft 99 kts 268°
2026-04-24 20:29 26.16817 -81.17935 1360 ft 98 kts 264°
2026-04-24 20:30 26.16796 -81.18701 1381 ft 98 kts 267°
2026-04-24 20:30 26.16784 -81.19466 1407 ft 98 kts 268°
2026-04-24 20:30 26.16801 -81.20232 1416 ft 100 kts 270°
2026-04-24 20:30 26.16799 -81.21003 1467 ft 97 kts 266°
2026-04-24 20:31 26.16777 -81.21760 1487 ft 97 kts 265°
2026-04-24 20:31 26.16737 -81.22513 1511 ft 97 kts 261°
2026-04-24 20:31 26.16604 -81.23255 1507 ft 100 kts 251°
2026-04-24 20:31 26.16414 -81.24008 1511 ft 101 kts 251°
2026-04-24 20:32 26.16227 -81.24775 1524 ft 102 kts 253°
2026-04-24 20:32 26.16068 -81.25540 1538 ft 102 kts 255°
2026-04-24 20:32 26.15942 -81.26329 1546 ft 103 kts 261°
2026-04-24 20:32 26.15872 -81.27130 1537 ft 105 kts 262°
2026-04-24 20:33 26.15798 -81.27934 1540 ft 105 kts 261°
2026-04-24 20:33 26.15741 -81.28751 1541 ft 106 kts 263°
2026-04-24 20:33 26.15690 -81.29569 1541 ft 106 kts 264°
2026-04-24 20:33 26.15649 -81.30392 1534 ft 107 kts 264°
2026-04-24 20:34 26.15620 -81.31220 1539 ft 106 kts 266°
2026-04-24 20:34 26.15608 -81.32044 1545 ft 106 kts 266°
2026-04-24 20:34 26.15585 -81.32852 1551 ft 106 kts 265°
2026-04-24 20:34 26.15535 -81.33701 1474 ft 111 kts 254°
2026-04-24 20:35 26.15058 -81.34287 1459 ft 103 kts 198°
2026-04-24 20:35 26.14348 -81.34368 1446 ft 101 kts 179°
2026-04-24 20:35 26.13652 -81.34383 1441 ft 100 kts 180°
2026-04-24 20:35 26.12964 -81.34420 1463 ft 97 kts 179°
2026-04-24 20:36 26.12289 -81.34457 1467 ft 96 kts 178°
2026-04-24 20:36 26.11626 -81.34473 1481 ft 95 kts 179°
2026-04-24 20:36 26.10956 -81.34499 1493 ft 94 kts 178°
2026-04-24 20:36 26.10302 -81.34515 1496 ft 95 kts 176°
2026-04-24 20:37 26.09630 -81.34531 1500 ft 95 kts 178°
2026-04-24 20:37 26.08969 -81.34553 1518 ft 94 kts 176°
2026-04-24 20:37 26.08313 -81.34551 1518 ft 94 kts 175°
2026-04-24 20:37 26.07655 -81.34551 1511 ft 96 kts 177°
2026-04-24 20:38 26.06988 -81.34557 1520 ft 95 kts 177°
2026-04-24 20:38 26.06315 -81.34562 1510 ft 96 kts 177°
2026-04-24 20:38 26.05637 -81.34572 1521 ft 99 kts 177°
2026-04-24 20:38 26.04923 -81.34582 1537 ft 102 kts 177°
2026-04-24 20:39 26.04206 -81.34626 1568 ft 104 kts 184°
2026-04-24 20:39 26.03491 -81.34724 1628 ft 103 kts 184°
2026-04-24 20:39 26.02781 -81.34827 1658 ft 104 kts 183°
2026-04-24 20:39 26.02043 -81.34930 1671 ft 106 kts 185°
2026-04-24 20:40 26.01299 -81.35050 1682 ft 108 kts 185°
2026-04-24 20:40 26.00560 -81.35143 1709 ft 108 kts 183°
2026-04-24 20:40 25.99818 -81.35240 1747 ft 105 kts 180°
2026-04-24 20:40 25.99078 -81.35310 1782 ft 105 kts 179°
2026-04-24 20:41 25.98350 -81.35207 1776 ft 107 kts 169°
2026-04-24 20:41 25.97608 -81.35256 1810 ft 107 kts 184°
2026-04-24 20:41 25.96868 -81.35361 1847 ft 106 kts 183°
2026-04-24 20:41 25.96131 -81.35474 1883 ft 106 kts 186°
2026-04-24 20:42 25.95400 -81.35622 1906 ft 107 kts 187°
2026-04-24 20:42 25.94674 -81.35835 1943 ft 107 kts 193°
2026-04-24 20:42 25.93949 -81.36053 1965 ft 108 kts 192°
2026-04-24 20:42 25.93236 -81.36327 1982 ft 109 kts 196°
2026-04-24 20:43 25.92515 -81.36616 2011 ft 109 kts 197°
2026-04-24 20:43 25.91805 -81.36903 2036 ft 109 kts 195°
2026-04-24 20:43 25.91077 -81.37173 2041 ft 110 kts 195°
2026-04-24 20:43 25.90344 -81.37443 2041 ft 111 kts 195°
2026-04-24 20:44 25.89586 -81.37649 2034 ft 111 kts 188°
2026-04-24 20:44 25.88823 -81.37769 2066 ft 108 kts 182°
2026-04-24 20:44 25.88072 -81.37858 2077 ft 109 kts 184°
2026-04-24 20:44 25.87306 -81.37975 2060 ft 112 kts 188°
2026-04-24 20:45 25.86584 -81.38192 1940 ft 97 kts 194°
2026-04-24 20:45 25.85976 -81.38444 1693 ft 91 kts 198°
2026-04-24 20:45 25.85401 -81.38719 1390 ft 90 kts 200°
2026-04-24 20:45 25.84836 -81.39022 1096 ft 88 kts 202°
2026-04-24 20:46 25.84304 -81.39300 968 ft 77 kts 201°
2026-04-24 20:46 25.83873 -81.39627 775 ft 77 kts 238°
2026-04-24 20:46 25.83881 -81.40224 666 ft 80 kts 290°
2026-04-24 20:46 25.84186 -81.40770 756 ft 87 kts 316°
2026-04-24 20:47 25.84678 -81.41196 816 ft 92 kts 328°
2026-04-24 20:47 25.85234 -81.41340 895 ft 81 kts 52°
2026-04-24 20:47 25.84969 -81.41046 927 ft 92 kts 216°
2026-04-24 20:47 25.85221 -81.41523 912 ft 98 kts 22°
2026-04-24 20:48 25.85076 -81.41180 923 ft 95 kts 210°
2026-04-24 20:48 25.85300 -81.41698 944 ft 98 kts
2026-04-24 20:48 25.85696 -81.41167 905 ft 87 kts 64°
2026-04-24 20:48 25.86029 -81.40634 709 ft 79 kts 76°
2026-04-24 20:49 25.85954 -81.40065 457 ft 77 kts 104°
2026-04-24 20:49 25.85677 -81.39592 219 ft 74 kts 140°
2026-04-24 20:49 25.85269 -81.39282 45 ft 68 kts 147°
2026-04-24 20:49 25.84905 -81.39042 6 ft 50 kts 152°
2026-04-24 20:50 25.84726 -81.38927 6 ft 11 kts 150°
2026-04-24 20:50 25.84701 -81.38889 6 ft 4 kts 71°
2026-04-24 20:50 25.84736 -81.38880 6 ft 9 kts 321°
2026-04-24 20:50 25.84801 -81.38923 6 ft 12 kts 322°
2026-04-24 20:51 25.84858 -81.38960 6 ft 9 kts 335°
2026-04-24 20:51 25.84923 -81.38995 6 ft 6 kts 33°
2026-04-24 20:51 25.84930 -81.38990 6 ft 1 kts 309°
2026-04-24 20:51 25.84930 -81.38992 6 ft 0 kts 234°